[[{"header":{"parameterUnit":"m.s-1","parameterCategory":1,"la1":30.2991,"la2":30.254,"lo1":-89.0895,"lo2":-89.0444,"dy":0.0017,"dx":0.0017,"nx":28,"ny":28,"refTime":"2024-10-14T09:00:00:Z","depth":0,"parameterNumber":2,"parameterNumberName":"U-component_of_WINDS"},"data":[0,0,0,0,0,0,0,0,0,0,0,0,0,0,0,0,0,0,0,0,0,0,0,0,0,0,0,0,0,0,0,0,0,0,0,0,0,0,0,0,0,0,0,0,0,0,0,0,0,0,0,0,0,0,0,0,0,0,-3.524,-3.5241,0,-3.5336,-3.5337,-3.5339,-3.5275,-3.5272,-3.5269,-3.5266,-3.5364,-3.5369,-3.5375,0,0,0,0,0,0,0,0,0,0,0,0,0,-3.4999,-3.5003,-3.5239,-3.5241,-3.5242,-3.5336,-3.5338,-3.5339,-3.5275,-3.5272,-3.5268,-3.5265,-3.5362,-3.5369,-3.5375,0,0,0,0,0,0,0,0,0,0,0,0,0,-3.51,-3.5005,-3.5239,-3.5222,-3.5221,-3.5336,-3.5338,-3.5339,-3.5276,-3.5272,-3.5267,-3.5263,-3.536,-3.5368,-3.5376,-3.5513,0,0,-3.54,-3.5404,0,0,0,0,0,0,0,0,-3.5094,-3.5109,-3.5223,-3.5223,-3.5223,-3.5289,-3.5288,-3.5397,-3.5277,-3.5255,-3.5266,-3.5261,-3.5343,-3.5352,-3.5379,-3.5518,-3.5522,-3.5401,-3.5406,-3.5409,-3.5412,0,0,0,0,0,0,0,-3.5087,-3.5104,-3.5278,-3.5225,-3.5225,-3.5209,-3.5218,-3.5309,-3.5322,-3.5257,-3.5252,-3.5265,-3.5342,-3.5372,-3.5381,-3.5523,-3.5401,-3.5408,-3.5413,-3.5416,-3.578,-3.5785,0,0,0,0,0,0,-3.5082,-3.5099,-3.5275,-3.5281,-3.5146,-3.5216,-3.5227,-3.5272,-3.5321,-3.5324,-3.5268,-3.5261,-3.536,-3.5372,-3.5385,-3.5549,-3.5409,-3.5417,-3.5421,-3.5775,-3.5781,-3.5786,0,0,0,0,0,0,-3.5077,-3.5098,-3.5271,-3.5189,-3.5209,-3.5225,-3.5276,-3.5276,-3.5307,-3.533,-3.5332,-3.5297,-3.5357,-3.5373,-3.5482,-3.5552,-3.542,-3.5428,-3.5769,-3.5777,-3.5784,-3.588,0,0,0,0,0,0,-3.507,-3.5097,-3.5149,-3.519,-3.5214,-3.5367,-3.5281,-3.5281,-3.5321,-3.5313,-3.5357,-3.5361,-3.5355,-3.547,-3.549,-3.5561,-3.5434,-3.5763,-3.5773,-3.5781,-3.5871,-3.589,-3.5906,0,0,0,0,0,-3.5062,-3.5172,-3.5152,-3.5174,-3.528,-3.5371,-3.5385,-3.5377,-3.5327,-3.538,-3.5395,-3.5359,-3.5541,-3.5482,-3.5504,-3.5578,-3.5759,-3.577,-3.5781,-3.5863,-3.5886,-3.5905,0,0,0,0,0,0,-3.5138,-3.5177,-3.5156,-3.5282,-3.5324,-3.536,-3.5427,-3.5402,-3.5458,-3.5448,-3.5435,-3.5446,-3.556,-3.5579,-3.5513,-3.5713,-3.5642,-3.5658,-3.5697,-3.5719,-3.5736,-3.573,-3.5441,0,0,0,0,0,-3.517,-3.5241,-3.5271,-3.538,-3.5402,-3.5411,-3.545,-3.5441,-3.5483,-3.5501,-3.5523,-3.5566,-3.5632,-3.5676,-3.5739,-3.5873,-3.5882,-3.5934,-3.5952,-3.5966,-3.598,-3.6053,-3.6077,-3.5822,-3.5822,-3.5822,0,0,-3.5236,-3.5266,-3.5311,-3.5396,-3.5427,-3.5501,-3.5426,-3.5507,-3.5562,-3.5513,-3.5617,-3.5636,-3.5682,-3.5804,-3.5859,-3.5824,-3.6053,-3.598,-3.5991,-3.5998,-3.6067,-3.6091,-3.6113,-3.583,-3.5828,-3.5827,0,0,-3.5394,-3.5424,-3.5518,-3.5551,-3.56,-3.5605,-3.5628,-3.5669,-3.5679,-3.5784,-3.5749,-3.5813,-3.5928,-3.5963,-3.5996,-3.6168,-3.6138,-3.6189,-3.6281,-3.6353,-3.6373,-3.6391,-3.6453,-3.6476,-3.6202,-3.6203,-3.6203,0,-3.547,-3.558,-3.557,-3.5654,-3.5693,-3.5652,-3.5748,-3.578,-3.5846,-3.5874,-3.5833,-3.5978,-3.6006,-3.6136,-3.6178,-3.6206,-3.6232,-3.6184,-3.6371,-3.6389,-3.6405,-3.6464,-3.6488,-3.6209,-3.6208,-3.6207,-3.6207,0,-3.5671,-3.5749,-3.5819,-3.5886,-3.5932,-3.6022,-3.6025,-3.6073,-3.6059,-3.6069,-3.6176,-3.6209,-3.6278,-3.6307,-3.6294,-3.6437,-3.6413,-3.6372,-3.63,-3.6436,-3.6491,-3.6514,-3.6217,-3.6215,-3.6213,-3.6212,0,0,-3.588,-3.5941,-3.5967,-3.5997,-3.6048,-3.6107,-3.6195,-3.6263,-3.6305,-3.6352,-3.6426,-3.6524,-3.6487,-3.6524,-3.6515,-3.6577,-3.6713,-3.6529,-3.653,-3.6563,-3.6873,-3.6904,-3.6931,-3.6693,-3.6697,-3.6701,-3.6869,0,-3.6043,-3.6197,-3.6191,-3.6335,-3.6406,-3.6369,-3.6445,-3.6485,-3.6496,-3.6559,-3.657,-3.6641,-3.6586,-3.6609,-3.6669,-3.6684,-3.6776,-3.6672,-3.6762,-3.6765,-3.6753,-3.696,-3.6993,-3.715,-3.6891,-3.6894,-3.6897,0,-3.6252,-3.6308,-3.646,-3.6501,-3.6531,-3.66,-3.6663,-3.6722,-3.6766,-3.677,-3.6813,-3.6793,-3.6882,-3.6807,-3.693,-3.686,-3.6896,-3.6909,-3.6915,-3.6924,-3.684,-3.6975,-3.72,-3.7224,-3.6931,-3.6928,-3.6926,0,-3.6391,-3.6504,-3.6609,-3.6636,-3.6687,-3.6736,-3.6759,-3.6799,-3.6841,-3.6895,-3.6922,-3.6986,-3.7021,-3.707,-3.7069,-3.7014,-3.7194,-3.7118,-3.7199,-3.72,-3.724,-3.7237,-3.7475,-3.7262,-3.7261,-3.7261,-3.726,0,-3.6573,-3.6668,-3.6673,-3.6738,-3.6843,-3.6834,-3.6938,-3.6956,-3.6992,-3.706,-3.703,-3.7094,-3.7088,-3.7153,-3.7152,-3.7254,-3.727,-3.7275,-3.7274,-3.7279,-3.7278,-3.7303,-3.7292,-3.7267,-3.7266,-3.7265,-3.7263,0,-3.6746,-3.6753,-3.6866,-3.6905,-3.6917,-3.6993,-3.7026,-3.7088,-3.7097,-3.7183,-3.7203,-3.7217,-3.7292,-3.7295,-3.738,-3.7379,-3.7504,-3.749,-3.749,-3.7488,-3.7569,-3.7562,-3.7832,-3.7867,-3.763,-3.7633,-3.7634,0,-3.6863,-3.6935,-3.6982,-3.7026,-3.7053,-3.7123,-3.7166,-3.716,-3.7206,-3.7262,-3.7317,-3.7389,-3.7447,-3.7568,-3.7585,-3.7651,-3.7639,-3.7729,-3.7648,-3.7651,-3.7641,-3.7637,-3.7645,-3.7745,-3.7747,-3.7749,-3.7751,0,-3.7069,-3.7069,-3.7132,-3.7197,-3.725,-3.73,-3.7347,-3.7384,-3.7384,-3.7437,-3.7513,-3.7558,-3.7646,-3.7718,-3.7782,-3.7805,-3.7779,-3.7776,-3.7799,-3.7804,-3.7801,-3.7805,-3.7534,-3.777,-3.7768,-3.7767,-3.7766,-3.7765,-3.7218,-3.7281,-3.7324,-3.7396,-3.7431,-3.7476,-3.7536,-3.7553,-3.7617,-3.7689,-3.7681,-3.7766,-3.7809,-3.7892,-3.7921,-3.7987,-3.7956,-3.7988,-3.7996,-3.8005,-3.8014,-3.7791,-3.7998,-3.7998,-3.7997,-3.7997,-3.7996,0,-3.7423,-3.7449,-3.7515,-3.7583,-3.7639,-3.761,-3.7661,-3.771,-3.7785,-3.7828,-3.7885,-3.7973,-3.8043,-3.8067,-3.8135,-3.8183,-3.8173,-3.8201,-3.8198,-3.8204,-3.8037,-3.8012,-3.8209,-3.8209,-3.8209,-3.8209,-3.8209,-3.8208,-3.7537,-3.7642,-3.7647,-3.7769,-3.7795,-3.7879,-3.791,-3.7952,-3.7985,-3.8086,-3.8144,-3.8159,-3.8194,-3.8264,-3.8327,-3.8332,-3.8359,-3.8393,-3.8393,-3.8237,-3.8215,-3.8195,-3.8171,-3.8398,-3.8399,-3.8554,-3.8555,-3.8556]},{"header":{"parameterUnit":"m.s-1","parameterCategory":1,"la1":30.2991,"la2":30.254,"lo1":-89.0895,"lo2":-89.0444,"dy":0.0017,"dx":0.0017,"nx":28,"ny":28,"refTime":"2024-10-14T09:00:00:Z","depth":0,"parameterNumber":3,"parameterNumberName":"V-component_of_WINDS"},"data":[0,0,0,0,0,0,0,0,0,0,0,0,0,0,0,0,0,0,0,0,0,0,0,0,0,0,0,0,0,0,0,0,0,0,0,0,0,0,0,0,0,0,0,0,0,0,0,0,0,0,0,0,0,0,0,0,0,0,-5.8612,-5.8612,0,-5.8644,-5.8644,-5.8644,-5.8589,-5.8587,-5.8585,-5.8583,-5.8612,-5.8614,-5.8616,0,0,0,0,0,0,0,0,0,0,0,0,0,-5.8498,-5.85,-5.8611,-5.8612,-5.8612,-5.8644,-5.8644,-5.8644,-5.8589,-5.8587,-5.8584,-5.8582,-5.8611,-5.8614,-5.8617,0,0,0,0,0,0,0,0,0,0,0,0,0,-5.854,-5.8501,-5.8611,-5.8589,-5.8587,-5.8643,-5.8644,-5.8644,-5.8589,-5.8587,-5.8584,-5.8581,-5.861,-5.8613,-5.8617,-5.8696,0,0,-5.8629,-5.863,0,0,0,0,0,0,0,0,-5.8538,-5.8544,-5.8592,-5.859,-5.8588,-5.8609,-5.8614,-5.8662,-5.859,-5.8588,-5.8583,-5.858,-5.8613,-5.8616,-5.8628,-5.8697,-5.8699,-5.8629,-5.8631,-5.8633,-5.8634,0,0,0,0,0,0,0,-5.8535,-5.8543,-5.8624,-5.8592,-5.859,-5.8575,-5.8578,-5.8623,-5.8616,-5.8588,-5.8584,-5.8589,-5.8611,-5.8625,-5.8628,-5.8699,-5.8629,-5.8632,-5.8634,-5.8636,-5.8834,-5.8837,0,0,0,0,0,0,-5.8535,-5.8541,-5.8623,-5.8625,-5.8556,-5.8579,-5.8583,-5.8605,-5.8615,-5.8614,-5.8591,-5.8586,-5.862,-5.8624,-5.8629,-5.8722,-5.8633,-5.8636,-5.8638,-5.8831,-5.8835,-5.8838,0,0,0,0,0,0,-5.8533,-5.8543,-5.8622,-5.8582,-5.8591,-5.8584,-5.861,-5.8607,-5.8621,-5.8618,-5.8616,-5.8607,-5.8618,-5.8624,-5.868,-5.8722,-5.8638,-5.8641,-5.8827,-5.8832,-5.8836,-5.8908,0,0,0,0,0,0,-5.853,-5.8543,-5.8574,-5.8583,-5.8593,-5.8674,-5.8613,-5.861,-5.8628,-5.8622,-5.8631,-5.863,-5.8616,-5.8675,-5.8684,-5.8725,-5.8644,-5.8824,-5.8829,-5.8835,-5.8901,-5.8914,-5.8925,0,0,0,0,0,-5.8526,-5.8592,-5.8576,-5.8586,-5.8632,-5.8676,-5.8682,-5.8665,-5.8632,-5.8662,-5.866,-5.863,-5.8716,-5.8681,-5.8691,-5.8734,-5.8821,-5.8828,-5.8834,-5.8896,-5.8912,-5.8924,0,0,0,0,0,0,-5.8586,-5.8593,-5.8575,-5.8646,-5.8661,-5.8667,-5.8704,-5.8682,-5.8706,-5.8699,-5.8676,-5.8679,-5.8739,-5.8742,-5.8703,-5.8811,-5.8763,-5.8772,-5.8806,-5.8821,-5.8832,-5.883,-5.8647,0,0,0,0,0,-5.8608,-5.8645,-5.8648,-5.871,-5.8719,-5.8711,-5.8729,-5.8715,-5.873,-5.8735,-5.8737,-5.8751,-5.8781,-5.8801,-5.8829,-5.8902,-5.8903,-5.8937,-5.8948,-5.8958,-5.8965,-5.9003,-5.9018,-5.886,-5.886,-5.886,0,0,-5.8653,-5.8661,-5.8685,-5.8722,-5.8732,-5.877,-5.8716,-5.8758,-5.8785,-5.8741,-5.8794,-5.8797,-5.881,-5.8875,-5.8904,-5.888,-5.901,-5.8967,-5.8974,-5.8977,-5.9012,-5.9027,-5.904,-5.8865,-5.8864,-5.8863,0,0,-5.8753,-5.8763,-5.8816,-5.8828,-5.8844,-5.8839,-5.8851,-5.8861,-5.8861,-5.8915,-5.8882,-5.8913,-5.8966,-5.8977,-5.8989,-5.9095,-5.9067,-5.9104,-5.9164,-5.9202,-5.9214,-5.9225,-5.9261,-5.9275,-5.9112,-5.9112,-5.9112,0,-5.8805,-5.8862,-5.8845,-5.889,-5.8906,-5.887,-5.8922,-5.8934,-5.8958,-5.897,-5.8943,-5.9008,-5.9015,-5.9082,-5.9107,-5.9119,-5.9132,-5.9102,-5.9214,-5.9225,-5.9234,-5.9269,-5.9283,-5.9116,-5.9116,-5.9115,-5.9115,0,-5.8925,-5.8965,-5.9005,-5.9031,-5.9052,-5.91,-5.909,-5.9113,-5.9098,-5.9094,-5.9149,-5.9156,-5.9184,-5.9199,-5.9184,-5.9263,-5.9248,-5.9218,-5.9169,-5.9254,-5.9286,-5.9299,-5.9123,-5.9121,-5.912,-5.9119,0,0,-5.9063,-5.908,-5.9095,-5.9106,-5.9122,-5.9152,-5.9198,-5.9227,-5.9246,-5.9265,-5.9301,-5.9347,-5.932,-5.9334,-5.932,-5.9353,-5.9434,-5.9319,-5.9319,-5.9339,-5.9521,-5.9542,-5.9558,-5.9417,-5.942,-5.9422,-5.9519,0,-5.9162,-5.9242,-5.9229,-5.9306,-5.9342,-5.9309,-5.9348,-5.9362,-5.936,-5.9389,-5.9386,-5.9418,-5.938,-5.9389,-5.942,-5.9418,-5.947,-5.9411,-5.9449,-5.9451,-5.9446,-5.9575,-5.9597,-5.9689,-5.9532,-5.9534,-5.9535,0,-5.9287,-5.9312,-5.9393,-5.9404,-5.9418,-5.9454,-5.9479,-5.9508,-5.9522,-5.9518,-5.9535,-5.9515,-5.9559,-5.9511,-5.957,-5.953,-5.9545,-5.9547,-5.955,-5.9551,-5.9497,-5.9578,-5.9718,-5.9732,-5.9555,-5.9554,-5.9552,0,-5.9378,-5.9431,-5.9487,-5.9497,-5.9511,-5.9537,-5.9544,-5.9556,-5.9574,-5.9596,-5.9607,-5.9633,-5.9647,-5.9667,-5.9654,-5.9621,-5.9716,-5.9667,-5.9712,-5.9713,-5.9733,-5.9731,-5.9876,-5.9745,-5.9745,-5.9745,-5.9744,0,-5.9489,-5.954,-5.9528,-5.9562,-5.9617,-5.9601,-5.9656,-5.9658,-5.9669,-5.9702,-5.9674,-5.9705,-5.9687,-5.9716,-5.9706,-5.9756,-5.9763,-5.976,-5.9756,-5.9762,-5.9762,-5.977,-5.9763,-5.9748,-5.9748,-5.9747,-5.9746,0,-5.9599,-5.9593,-5.9651,-5.966,-5.9664,-5.9704,-5.9711,-5.9742,-5.9738,-5.978,-5.9789,-5.9783,-5.9816,-5.9805,-5.984,-5.9833,-5.9897,-5.9886,-5.9893,-5.9889,-5.9935,-5.9931,-6.0088,-6.0108,-5.9967,-5.9968,-5.9969,0,-5.9669,-5.9708,-5.9721,-5.9742,-5.9751,-5.9785,-5.9804,-5.9789,-5.981,-5.9829,-5.9857,-5.9888,-5.9912,-5.9966,-5.9964,-5.999,-5.9978,-6.0032,-5.9982,-5.9986,-5.9978,-5.9975,-5.9978,-6.0041,-6.0043,-6.0044,-6.0046,0,-5.9794,-5.979,-5.9819,-5.9847,-5.9871,-5.9892,-5.991,-5.9928,-5.9915,-5.9939,-5.9973,-5.9992,-6.0028,-6.0059,-6.0083,-6.0088,-6.0064,-6.0062,-6.0073,-6.0078,-6.008,-6.0078,-5.9918,-6.0058,-6.0056,-6.0056,-6.0055,-6.0054,-5.9885,-5.9918,-5.9933,-5.9966,-5.9979,-5.9997,-6.0026,-6.0027,-6.0056,-6.0085,-6.0075,-6.0113,-6.0126,-6.0156,-6.0165,-6.0194,-6.0173,-6.019,-6.0194,-6.0198,-6.0204,-6.0077,-6.0198,-6.0198,-6.0198,-6.0197,-6.0197,0,-6.0008,-6.0016,-6.0047,-6.0074,-6.01,-6.0078,-6.0097,-6.0119,-6.0155,-6.0169,-6.0194,-6.0232,-6.0262,-6.0263,-6.029,-6.0313,-6.0303,-6.0321,-6.0318,-6.0319,-6.0222,-6.0208,-6.0328,-6.0328,-6.0328,-6.0328,-6.0328,-6.0328,-6.0074,-6.0128,-6.0125,-6.0184,-6.0192,-6.0231,-6.0243,-6.0259,-6.0271,-6.0316,-6.0341,-6.0342,-6.0351,-6.0378,-6.0404,-6.0403,-6.0414,-6.0436,-6.0431,-6.0339,-6.0326,-6.0314,-6.0301,-6.0438,-6.0439,-6.0525,-6.0526,-6.0527]}]]